DW6619 Weather Reports


Display with metric or nautical units.
time (UTC)temp
F
wind
direction
speed
MPH
gust
MPH
rain 1hr
in
rain 24hr
in
rain mn
in
humidity
%
barometer
mb
20260506140035 60 146 0.0 1.0 0.11 0.16 0.16 85 1010.1
20260506134531 60 232 0.0 0.0 0.13 0.15 0.15 86 1010.0
20260506133017 61 175 0.0 0.0 0.11 0.13 0.13 86 1010.2
20260506131514 61 197 0.0 0.0 0.06 0.08 0.08 86 1010.5
20260506130012 61 195 0.0 0.0 0.03 0.05 0.05 86 1010.6
20260506124529 62 217 0.0 0.0 0.02 0.02 0.02 86 1010.3
20260506123051 62 221 0.0 0.0 0.02 0.02 0.02 86 1009.9
20260506121518 62 174 0.0 0.0 0.02 0.02 0.02 85 1009.9
20260506120042 63 186 0.0 5.0 0.02 0.02 0.02 83 1010.2
20260506114532 63 182 0.0 1.0 0.00 0.00 0.00 81 1010.4
20260506113030 64 241 0.0 8.0 0.00 0.00 0.00 79 1010.1
20260506111521 64 168 0.0 0.0 0.00 0.00 0.00 78 1010.0
20260506110019 64 170 0.0 7.0 0.00 0.00 0.00 78 1009.7
20260506104512 63 209 0.0 6.0 0.00 0.00 0.00 79 1009.6
20260506103027 63 186 0.0 8.0 0.00 0.00 0.00 80 1009.5
20260506101524 63 215 0.0 3.0 0.00 0.00 0.00 80 1009.5
20260506100021 63 229 0.0 6.0 0.00 0.00 0.00 80 1009.6
20260506094520 63 286 0.0 5.0 0.00 0.00 0.00 79 1009.4
20260506093010 66 185 0.0 8.0 0.00 0.00 0.00 73 1009.4
20260506091520 66 219 0.0 0.0 0.00 0.00 0.00 70 1009.5
20260506090020 66 211 0.0 0.0 0.00 0.00 0.00 69 1009.7
20260506084516 66 231 0.0 0.0 0.00 0.00 0.00 69 1009.6
20260506083033 67 136 0.0 0.0 0.00 0.00 0.00 67 1009.8
20260506081509 67 200 0.0 8.0 0.00 0.00 0.00 67 1009.7
20260506073012 68 190 0.0 3.0 0.00 0.00 0.00 65 1009.6
20260506071510 68 244 0.0 9.0 0.00 0.00 0.00 64 1009.6
20260506061522 69 192 0.0 0.0 0.00 0.00 0.00 61 1010.2
20260506044520 71 253 1.0 8.0 0.00 0.00 0.00 56 1010.7
20260506043030 72 135 0.0 0.0 0.00 0.00 0.00 55 1010.5
20260506041524 72 214 0.0 0.0 0.00 0.00 0.00 55 1010.5
20260506040020 72 268 0.0 0.0 0.00 0.00 0.00 54 1010.6
20260506034518 72 196 0.0 0.0 0.00 0.00 0.00 53 1010.5
20260506033016 72 218 0.0 0.0 0.00 0.00 0.00 53 1010.4
20260506031512 72 208 0.0 0.0 0.00 0.00 0.00 52 1010.5
20260506030024 72 202 0.0 0.0 0.00 0.00 0.00 51 1010.4
20260506024522 72 199 0.0 0.0 0.00 0.00 0.00 51 1010.5
20260506023015 72 165 0.0 0.0 0.00 0.00 0.00 49 1010.5
20260506021513 72 111 0.0 0.0 0.00 0.00 0.00 48 1010.6
20260506020009 72 205 0.0 0.0 0.00 0.00 0.00 47 1010.6
20260506014554 73 211 0.0 0.0 0.00 0.00 0.00 45 1010.4
20260506013025 73 214 0.0 0.0 0.00 0.00 0.00 44 1010.4
20260506011522 74 107 0.0 6.0 0.00 0.00 0.00 43 1010.2
20260506010021 74 176 0.0 4.0 0.00 0.00 0.00 42 1010.1
20260506004523 75 205 0.0 0.0 0.00 0.00 0.00 40 1009.8
20260506003021 76 213 0.0 0.0 0.00 0.00 0.00 39 1009.6
20260506001539 76 227 0.0 1.0 0.00 0.00 0.00 38 1009.6
20260506000014 77 224 0.0 0.0 0.00 0.00 0.00 35 1009.4
20260505234514 78 246 0.0 0.0 0.00 0.00 0.00 33 1009.3
20260505233031 79 184 0.0 10.0 0.00 0.00 0.00 32 1009.3
20260505231525 80 183 1.0 16.0 0.00 0.00 0.00 32 1009.3
20260505230015 80 202 0.0 0.0 0.00 0.00 0.00 33 1009.3
20260505224513 80 172 0.0 9.0 0.00 0.00 0.00 32 1009.2
20260505223011 81 116 0.0 9.0 0.00 0.00 0.00 32 1009.2
20260505221509 81 290 0.0 13.0 0.00 0.00 0.00 32 1009.3
20260505220025 82 289 4.0 14.0 0.00 0.00 0.00 30 1009.2
20260505214519 83 226 1.0 10.0 0.00 0.00 0.00 30 1009.1
20260505213016 83 184 4.0 18.0 0.00 0.00 0.00 29 1009.1
20260505211511 84 241 4.0 12.0 0.00 0.00 0.00 30 1009.0
20260505210031 83 182 0.0 16.0 0.00 0.00 0.00 30 1008.9
20260505204527 84 130 5.0 17.0 0.00 0.00 0.00 29 1009.0
20260505203025 84 257 2.0 10.0 0.00 0.00 0.00 31 1009.1
20260505201543 85 248 2.0 12.0 0.00 0.00 0.00 33 1008.9
20260505200009 86 154 1.0 10.0 0.00 0.00 0.00 30 1009.0
20260505194543 86 227 3.0 12.0 0.00 0.00 0.00 29 1009.1
20260505193016 85 252 0.0 14.0 0.00 0.00 0.00 31 1009.4
20260505191511 85 203 2.0 13.0 0.00 0.00 0.00 31 1009.6
20260505190009 85 122 3.0 13.0 0.00 0.00 0.00 29 1009.7
20260505184520 85 167 4.0 17.0 0.00 0.00 0.00 29 1010.2
20260505183016 84 186 1.0 15.0 0.00 0.00 0.00 33 1010.4
20260505181533 85 175 2.0 12.0 0.00 0.00 0.00 33 1010.5
20260505180028 85 189 1.0 10.0 0.00 0.00 0.00 33 1010.6
20260505174525 84 284 3.0 15.0 0.00 0.00 0.00 33 1010.7
20260505173043 84 186 2.0 14.0 0.00 0.00 0.00 35 1010.9
20260505171547 83 188 0.0 15.0 0.00 0.00 0.00 34 1010.9
20260505170015 83 234 1.0 12.0 0.00 0.00 0.00 35 1011.1
20260505164517 82 272 0.0 10.0 0.00 0.00 0.00 40 1011.2
20260505163012 82 194 2.0 10.0 0.00 0.00 0.00 38 1011.6
20260505161530 82 199 0.0 9.0 0.00 0.00 0.00 42 1011.9
20260505153016 80 315 0.0 0.0 0.00 0.00 0.00 41 1012.3
20260505151511 79 217 0.0 1.0 0.00 0.00 0.00 42 1012.3